Regional Weather Roundup
Issued by NWS

Home | Current Version | Previous Version | Text Only | Print | Product List | Glossary On
Versions: 1 2 3 4 5 6 7 8 9 10 11 12 13 14 15 16 17 18 19 20 21 22 23 24 25 26 27 28 29 30 31 32 33 34 35 36 37 38 39 40 41 42 43 44 45 46 47 48 49 50
000
ASUS43 KTOP 290108
RWRKS

WEATHER ROUNDUP FOR KANSAS
NATIONAL WEATHER SERVICE GOODLAND KS
800 PM CDT TUE JUL 28 2015

NOTE:  "FAIR" INDICATES FEW OR NO CLOUDS BELOW 12,000 FEET WITH NO
SIGNIFICANT WEATHER AND/OR OBSTRUCTIONS TO VISIBILITY.

KSZ001>006-013>018-027>032-041>047-290200-
NORTHWEST KANSAS

CITY           SKY/WX    TMP DP  RH WIND       PRES   REMARKS
GOODLAND       SUNNY     80  44  27 NE13      30.10R
HAYS           CLEAR     82  61  47 N17       29.96R
HILL CITY      CLEAR     81  53  37 N12       30.00R
RUSSELL        CLEAR     85  68  56 N16       29.92R
$$

KSZ061>065-074>080-084>089-290200-
SOUTHWEST KANSAS

CITY           SKY/WX    TMP DP  RH WIND       PRES   REMARKS
DODGE CITY     CLEAR     83  64  52 N17       29.96R
ELKHART          N/A     80  59  48 NE7         N/A
GARDEN CITY    PTCLDY    81  57  43 NE16      29.99F
GREAT BEND     PTCLDY    88  70  55 N17       29.91R
LIBERAL        PTCLDY    82  63  51 N10       29.98R
PRATT          PTCLDY    90  70  51 N15       29.91R HX  95
$$

KSZ066>073-081>083-090>101-290200-
SOUTHEAST KANSAS

CITY           SKY/WX    TMP DP  RH WIND       PRES   REMARKS
CHANUTE        CLEAR     88  74  63 S12       29.90S HX  96
COFFEYVILLE    CLEAR     89  72  56 S7        29.90R HX  96
HUTCHINSON     CLEAR     97  69  40 S14       29.86R HX 103
MEDICINE LODGE   N/A     95  69  42 S8        29.85R HX 100
NEWTON         CLEAR     93  68  43 S17G23    29.90S HX  97
PARSONS        CLEAR     88  74  63 S5        29.91S HX  96
WICHITA INTL   PTCLDY    93  71  48 S18       29.86R HX 100
WICHITA JABRA  CLEAR     92  72  51 S16G24    29.87R HX  99
WICHITA MCCONL CLEAR     91  73  53 S18       29.88R HX  99
WINFIELD       CLEAR     90  74  59 S13       29.89R HX  99
$$

KSZ007>012-019>026-033>040-048>060-102>105-290200-
NORTHEAST KANSAS

CITY           SKY/WX    TMP DP  RH WIND       PRES   REMARKS
CONCORDIA      CLOUDY    80  71  74 N12       29.92R
EMPORIA        CLEAR     91  73  55 S14       29.87R HX  99
LAWRENCE       CLEAR     89  73  59 S8        29.86R HX  97
MANHATTAN      CLEAR     93  74  53 S10       29.81S HX 103
MARYSVILLE     PTCLDY    81  75  83 N14       29.88R
OLATHE IND     CLEAR     88  72  58 S10       29.89R
OLATHE EXE     CLEAR     88  71  57 S10       29.88R
SALINA         PTCLDY    90  75  61 N23       29.85R HX 100
TOPEKA BILLARD CLEAR     92  74  55 S8        29.85R HX 101
TOPEKA FORBES  CLEAR     92  73  53 S10       29.86R HX 100
$$



USA.gov is the U.S. government's official web portal to all federal, state and local government web resources and services.